Theta_e
295 293 289 292 294 292 293 292 291 292 293 291 291 292 295 295 294 295 295 295 295 295 299 300 301 302 301 301 301 301 301 301 302 301 300 302 302 302 303 303 303 303 305 310
292 289 291 293 292 291 291 290 290 290 292 291 292 291 295 296 294 295 295 295 294 295 297 299 300 301 300 300 300 300 300 300 300 301 301 302 302 301 302 302 302 301 301 305
292 290 292 290 289 289 290 290 290 289 291 292 290 289 292 294 294 294 294 294 294 294 295 297 298 299 299 298 298 298 299 299 300 301 301 301 301 301 299 299 299 299 299 300
291 292 290 289 289 290 287 291 290 289 288 286 289 286 288 291 290 291 292 293 294 294 296 296 296 296 297 298 299 300 300 300 299 298 298 297 296 295 297 297 300 298 298 297
289 289 288 288 289 290 288 291 290 289 288 286 286 284 288 291 288 290 292 293 293 294 296 295 295 296 297 297 298 298 299 299 299 299 297 296 294 295 296 296 297 298 296 296
290 293 291 290 290 290 291 289 289 289 287 282 286 286 291 287 288 291 292 292 293 293 295 295 296 296 295 297 297 297 296 296 297 297 297 296 296 295 294 294 294 295 296 296
288 288 291 292 288 290 289 286 284 282 281 281 285 283 288 292 292 293 292 291 293 293 295 295 293 293 295 296 296 296 296 295 296 296 295 295 295 295 294 294 294 294 294 294
284 282 288 292 289 288 287 287 286 281 281 282 283 281 287 290 293 295 294 292 293 293 294 294 293 293 294 295 295 296 295 294 295 295 295 295 295 295 295 295 294 294 293 293
284 284 289 290 290 289 287 283 287 282 277 280 285 287 286 288 290 292 291 291 291 292 293 292 292 293 294 294 294 294 294 294 294 294 294 293 294 294 293 294 294 294 294 293
291 284 286 288 290 290 288 288 281 283 279 278 284 284 287 283 285 289 288 289 291 292 292 292 292 293 293 293 293 292 293 292 293 293 293 292 292 292 292 293 292 292 292 292
291 288 283 287 285 285 284 284 284 284 282 280 280 285 288 286 287 288 289 290 291 291 291 291 292 292 292 292 291 291 291 291 291 292 292 291 291 291 290 290 290 290 291 290
293 288 282 283 288 288 289 286 286 282 281 282 281 285 289 290 291 291 290 291 292 291 291 292 292 292 291 290 289 289 289 289 289 290 290 290 290 289 288 288 288 289 289 289
291 287 281 281 283 285 283 286 286 286 284 282 280 284 288 289 292 292 291 291 291 291 291 291 291 291 291 290 289 288 288 287 288 289 289 289 288 288 287 287 287 287 287 287
293 288 285 284 283 285 281 284 286 285 282 283 283 286 286 287 290 291 291 292 291 290 290 290 290 291 291 290 289 287 286 287 287 288 288 287 287 287 287 286 286 286 286 285
289 284 285 286 284 284 284 284 285 283 285 283 286 285 288 290 290 292 293 292 290 289 289 289 289 290 291 289 288 286 286 286 287 286 286 286 287 287 286 285 285 285 285 284
288 284 282 282 284 283 281 284 285 286 286 286 286 285 293 295 294 293 292 290 289 288 289 289 290 290 289 288 287 285 285 285 286 285 285 286 286 285 285 284 284 284 284 284
285 285 282 282 277 278 277 279 283 286 287 287 283 288 294 292 292 292 292 291 290 290 289 289 289 289 289 288 287 285 284 285 285 284 284 284 285 284 284 284 284 283 283 283
284 283 282 281 278 276 287 285 285 286 289 290 290 291 293 293 294 295 295 292 291 291 290 290 290 291 290 290 286 285 284 284 284 284 283 283 283 283 283 283 283 283 283 282
287 284 280 279 278 283 286 286 282 282 284 289 289 291 292 293 294 293 296 295 293 293 292 292 292 292 291 287 285 284 284 284 283 282 282 282 282 282 282 282 282 282 282 282
283 284 282 274 276 277 288 284 285 286 281 292 291 290 291 291 285 290 296 296 295 295 294 292 292 292 289 285 284 283 283 283 282 282 282 282 282 282 281 282 282 282 282 282
277 278 277 278 277 282 289 284 285 282 288 287 290 291 291 289 291 294 297 296 296 294 294 293 291 290 287 284 283 283 282 282 282 281 280 280 281 281 282 282 282 282 281 281
278 277 277 279 277 275 287 282 282 289 287 289 288 290 291 293 294 294 295 295 295 293 293 292 290 288 285 283 283 282 281 281 280 279 278 278 279 280 281 280 281 281 281 280
280 285 281 282 282 289 287 287 288 288 288 288 289 289 291 292 292 293 293 294 293 292 291 290 289 286 283 283 283 281 281 280 278 277 275 276 277 279 280 280 280 280 281 280
281 286 282 282 287 285 287 289 289 289 288 290 290 291 291 291 292 291 291 291 291 290 289 289 287 283 281 282 282 282 280 278 276 275 275 275 276 277 278 280 281 281 280 279
284 282 283 282 285 286 288 289 290 289 288 287 288 290 291 292 290 290 289 289 289 288 287 288 286 284 281 281 281 280 278 277 276 275 275 276 276 277 277 279 279 279 279 280
284 283 282 284 288 288 292 291 290 289 289 287 288 287 287 290 290 289 288 288 288 286 286 286 286 283 280 281 280 279 278 278 276 275 275 275 275 276 277 277 277 280 280 279
Wind_Speed
2 6 11 16 16 3 6 10 8 4 5 10 15 14 9 13 11 10 8 4 1 4 6 8 11 12 13 14 15 17 17 18 13 10 11 8 10 10 10 10 14 15 14 8
3 9 3 5 5 4 5 6 5 3 7 7 8 15 13 13 13 11 8 5 1 2 5 8 10 12 13 14 15 16 17 17 14 10 9 8 9 9 9 10 12 15 16 16
7 3 1 3 6 8 7 10 5 3 7 8 8 14 17 8 10 8 7 4 3 3 4 6 9 11 11 13 14 14 15 16 16 17 11 11 9 10 12 12 12 14 18 18
4 4 4 4 4 6 9 2 3 6 7 4 4 5 7 13 14 13 11 9 5 4 4 5 6 8 9 10 10 11 13 14 14 17 14 16 10 9 9 10 10 11 17 18
4 6 5 5 1 1 4 4 4 3 5 3 7 6 4 10 15 15 14 11 8 5 4 4 4 5 9 9 10 11 12 13 14 14 12 9 11 8 7 9 14 16 15 18
4 1 1 3 4 2 11 7 4 2 3 6 10 9 6 9 11 17 17 13 11 8 7 5 5 6 7 8 9 9 10 12 13 14 16 16 14 13 12 13 12 10 10 12
0 2 2 2 5 4 3 4 3 3 5 6 3 5 10 7 5 16 20 16 13 10 10 9 7 5 6 7 8 8 10 12 13 14 14 15 15 14 14 13 11 13 11 12
9 8 10 9 3 3 9 3 4 6 5 2 3 8 4 2 5 13 17 15 14 12 11 11 7 5 4 6 7 8 9 11 12 13 13 13 14 8 9 11 10 9 10 11
5 4 2 1 2 4 7 8 4 2 1 2 8 6 4 6 10 16 18 17 16 15 14 12 9 6 4 4 6 7 8 9 11 11 10 12 12 12 11 13 11 10 11 11
8 3 4 4 1 6 5 3 4 3 5 6 5 5 7 14 17 19 20 19 17 16 15 12 9 7 4 2 3 5 7 8 9 10 9 9 11 12 12 11 13 13 13 14
9 6 5 5 11 11 6 5 6 4 3 3 4 6 4 17 22 25 22 20 20 19 16 13 11 8 5 2 3 4 5 7 8 8 9 9 10 11 11 11 12 13 13 14
8 4 5 7 3 2 8 8 11 6 8 5 3 8 2 1 19 20 21 18 20 18 16 14 12 10 7 4 3 4 5 7 7 7 8 9 9 11 11 12 13 13 14 13
9 4 3 3 3 5 8 10 7 5 4 7 5 3 1 3 15 18 20 20 18 19 17 15 13 11 9 6 4 5 6 6 5 6 6 8 9 10 11 12 12 12 12 13
7 6 8 5 3 5 7 13 17 14 9 11 19 16 6 9 15 19 21 21 22 18 17 16 13 12 10 8 6 6 6 5 5 6 6 8 9 10 10 10 11 11 12 13
4 6 8 15 4 4 5 9 19 23 24 17 14 25 17 15 19 22 20 20 20 19 19 17 15 13 12 10 6 6 6 5 6 6 7 8 8 8 8 9 10 10 11 11
1 2 2 4 5 8 15 15 15 22 23 25 23 31 12 10 15 17 22 23 23 22 20 19 16 15 12 12 9 7 7 7 7 7 6 6 7 7 7 7 8 9 10 11
6 4 2 5 3 2 13 21 24 21 19 22 21 28 5 16 16 20 23 25 25 24 23 21 19 16 12 12 10 10 8 8 8 7 6 5 6 6 6 7 8 9 10 10
7 5 2 2 2 9 0 4 14 22 24 22 23 22 15 13 17 19 23 26 25 24 23 21 17 16 13 12 11 11 8 7 8 7 6 5 5 5 5 6 8 8 8 9
6 5 4 4 6 14 16 7 8 9 10 24 29 26 17 8 9 15 18 21 24 27 24 20 18 16 16 14 12 11 9 7 8 8 6 5 4 5 5 7 8 7 7 7
5 3 3 4 5 9 2 3 4 5 11 14 20 23 15 10 11 11 18 21 21 19 19 20 20 17 17 15 14 13 11 9 8 7 7 6 4 4 6 7 7 5 6 6
7 5 11 9 7 10 10 8 5 4 3 2 5 9 13 15 12 2 15 19 19 19 23 22 21 19 18 17 16 13 11 9 9 7 6 6 5 4 5 6 5 5 6 5
14 12 7 6 7 17 8 5 9 1 2 2 2 4 10 13 2 1 9 15 18 21 22 22 20 17 16 17 15 14 12 11 9 9 6 6 5 4 4 4 6 4 4 4
9 10 12 15 13 5 15 6 10 1 2 2 2 3 7 7 8 7 7 13 17 21 19 20 19 19 17 16 15 16 13 13 11 8 8 5 5 5 4 3 4 4 2 2
7 6 4 4 14 15 11 14 7 7 4 3 1 4 7 10 10 7 7 10 14 16 18 17 19 20 19 16 15 13 15 14 12 11 9 7 6 5 4 2 2 3 2 3
5 13 11 9 9 6 11 15 13 13 7 6 5 6 7 6 8 8 8 11 13 15 15 17 18 18 19 17 14 15 15 15 13 10 9 9 6 6 5 4 3 3 5 4
9 10 12 12 9 13 11 8 17 14 16 16 11 7 5 7 9 9 9 11 13 15 15 15 16 17 19 18 16 15 15 14 14 11 8 7 7 6 5 6 6 8 8 9
Wind_Direction
100 215 207 199 210 342 316 226 204 159 147 201 231 246 247 192 219 218 214 215 54 43 35 24 20 22 19 17 14 10 9 8 5 356 355 353 3 6 5 0 7 355 346 312
180 235 30 28 134 197 194 208 200 110 168 219 246 251 245 207 210 216 205 196 141 57 43 36 27 32 24 20 16 17 15 14 15 8 5 10 14 13 4 3 5 7 6 10
219 59 84 209 179 196 213 221 175 328 169 237 283 258 223 213 198 186 199 171 151 80 53 40 32 28 23 22 20 17 15 18 21 19 15 19 20 19 5 7 8 10 18 18
252 122 186 185 205 217 220 134 188 159 187 265 214 287 198 185 201 200 194 190 157 128 99 51 26 21 25 26 26 29 32 28 28 24 23 26 24 10 0 358 10 17 22 21
141 167 173 191 85 264 76 141 140 171 232 314 190 255 137 173 208 200 193 176 160 136 121 85 50 55 55 39 26 23 29 26 29 36 35 21 25 15 4 11 16 16 16 20
62 25 12 41 79 317 140 118 108 171 225 242 224 221 189 189 218 189 183 172 159 152 146 127 116 85 47 39 29 22 26 25 27 30 26 19 25 19 19 13 12 13 16 17
126 153 115 189 116 120 235 170 182 222 207 253 133 207 264 188 181 183 172 166 162 162 158 153 136 88 59 44 34 22 27 29 24 30 27 23 22 26 25 23 17 15 12 19
196 229 185 168 269 217 195 264 218 232 205 110 148 228 224 54 141 158 162 159 157 162 163 159 143 118 71 48 43 24 28 31 23 27 26 24 21 21 25 24 24 26 20 16
196 201 120 37 25 329 171 217 15 72 90 245 211 211 170 159 164 157 161 162 169 166 168 163 152 132 92 61 45 30 24 31 28 27 30 23 22 25 26 27 25 27 23 20
184 247 181 134 142 221 253 352 167 197 234 243 230 250 236 191 179 176 174 176 173 168 169 167 160 143 126 89 61 39 35 36 35 28 32 30 24 27 26 26 26 29 27 24
150 217 126 157 196 190 186 210 231 290 233 258 270 232 19 190 184 183 180 181 176 173 175 174 165 150 149 160 95 60 48 49 45 39 35 33 30 31 33 32 30 26 30 28
175 162 196 205 151 329 274 236 207 235 193 239 320 260 77 114 185 184 179 180 179 178 179 173 169 160 164 182 161 93 75 63 49 42 43 39 37 36 36 34 31 26 31 34
173 197 172 215 195 190 218 216 243 279 283 209 248 246 163 169 178 181 182 180 178 179 180 175 175 172 170 186 168 113 94 83 68 60 53 52 46 44 38 37 35 33 31 32
201 200 231 242 80 118 201 209 203 214 237 231 236 258 187 190 186 185 187 183 182 179 181 179 183 180 174 176 169 131 111 101 97 82 66 56 51 47 41 39 40 36 35 33
234 245 248 261 243 211 237 222 212 209 223 215 236 238 240 202 196 196 183 181 182 183 185 185 183 183 179 166 169 142 131 123 104 85 70 58 53 54 49 43 42 42 41 38
192 264 338 260 237 239 260 241 229 228 229 241 253 262 248 240 184 182 189 184 188 186 186 187 180 181 180 167 171 161 150 134 115 96 79 69 65 61 57 54 49 50 45 42
182 214 177 252 358 314 272 220 226 222 220 222 231 241 221 206 187 190 188 191 192 187 186 185 180 179 175 167 159 167 158 140 120 104 91 79 78 70 63 57 57 53 47 43
177 164 168 328 262 242 33 174 231 233 238 221 242 248 236 210 206 198 195 190 191 186 185 183 177 175 167 157 158 144 150 139 124 112 105 91 89 83 73 71 66 59 51 46
184 146 179 224 219 300 294 189 185 188 257 223 233 242 238 219 206 219 200 197 194 189 183 177 172 168 158 154 146 145 147 144 135 128 120 111 108 100 92 83 73 62 60 55
164 269 203 144 225 247 331 136 181 125 278 224 217 231 216 181 217 219 195 193 194 187 176 170 167 159 151 152 149 150 153 150 147 139 132 119 110 109 103 94 84 76 66 64
157 172 204 202 240 274 259 149 157 151 260 124 183 211 196 199 212 323 181 190 185 175 172 164 163 162 155 152 150 152 152 158 139 133 133 121 108 98 99 95 88 84 73 63
170 160 181 196 215 260 145 92 206 337 9 87 111 215 207 201 136 143 175 177 174 168 166 163 159 156 151 152 151 151 158 138 142 138 134 124 119 116 113 104 97 85 95 79
200 187 168 195 211 188 189 231 213 33 330 222 201 197 211 181 194 191 172 169 168 166 166 167 162 150 150 157 158 154 149 143 141 134 127 123 116 114 123 123 115 105 95 84
225 194 205 136 241 236 218 241 224 197 212 238 231 171 179 184 185 173 164 160 162 165 169 167 160 157 155 161 157 149 146 142 141 142 137 133 135 129 121 112 91 94 81 70
168 148 195 259 260 314 243 232 230 220 205 206 195 191 196 175 171 160 161 162 164 163 168 173 169 162 154 152 147 145 149 147 147 146 142 139 137 142 128 103 95 83 53 63
190 180 190 223 182 213 241 222 206 206 217 208 194 197 214 176 173 158 169 169 165 167 170 172 170 160 154 154 149 150 152 155 147 144 146 151 141 151 144 131 110 91 89 81